Regional Weather Roundup
Issued by NWS Sterling, VA

Home | Current Version | Previous Version | Graphics & Text | Print | Product List | Glossary On
Versions: 1 2 3 4 5 6 7 8 9 10 11 12 13 14 15 16 17 18 19 20 21 22 23 24 25 26 27 28 29 30 31 32 33 34 35 36 37 38 39 40 41 42 43 44 45 46 47 48 49
000
ASUS41 KLWX 201010
RWRLWX

REGIONAL WEATHER ROUNDUP
NATIONAL WEATHER SERVICE BALTIMORE MD/WASHINGTON DC
500 AM EST SAT DEC 20 2014

Note: "FAIR" indicates few or no clouds below 12,000 feet
with no significant weather and/or obstructions to visibility.
 TC=TEMPERATURE CELSIUS

 * =Non NWS site. Station does not report precipitation (e.g. rain,
    snow, etc.), thunder, or fog.

DCZ001-MDZ009-015-VAZ040>042-051-053>054-201100-
WASHINGTON METRO

CITY           SKY/WX    TMP DP  RH WIND       PRES   REMARKS
WASHINGTON NAT PTCLDY    32  19  58 N5        30.27F
DULLES         PTCLDY    22  19  89 CALM      30.26S
ANDREWS AFB    CLEAR     26  19  74 NW6       30.25S
FT BELVOIR     CLEAR     21  19  92 SE2       30.27F
QUANTICO       CLEAR     25  20  81 NW6       30.28F
COLLEGE PARK*  CLEAR     25  23  93 CALM      30.26S
LEESBURG*      CLEAR     27  23  86 CALM      30.26S
MANASSAS*      CLEAR     19  18  93 CALM      30.26F
GAITHERSBURG*  FAIR      21  18  86 CALM      30.28S

$$

MDZ006>007-011-014-201100-
BALTIMORE METRO

CITY           SKY/WX    TMP DP  RH WIND       PRES   REMARKS
BWI AIRPORT    MOCLDY    27  19  72 CALM      30.25S
MD SCIENCE CTR   N/A     32  19  58 MISG      30.26R
MARTIN STATE   CLEAR     27  23  86 NW6       30.27S
ANNAPOLIS      CLEAR     30  20  66 VRB5      30.26R
FORT MEADE*    CLEAR     23  21  93 CALM      30.28S

$$

MDZ012-015-019>023-201100-
MARYLAND EASTERN SHORE

CITY           SKY/WX    TMP DP  RH WIND       PRES   REMARKS
OCEAN CITY     CLEAR     26  22  84 NW5       30.24F
SALISBURY      CLEAR     27  23  85 CALM      30.25S
BAY BRIDGE AP*   N/A     32  23  69 NW5       30.26S
CAMBRIDGE*     CLEAR     32  27  80 NW3       30.24F
EASTON*        CLEAR     30  26  86 CALM      30.29S

$$

MDZ017>025-201100-
SOUTHERN MARYLAND

CITY           SKY/WX    TMP DP  RH WIND       PRES   REMARKS
PATUXENT RIVER PTCLDY    31  22  69 NW7       30.26S
ST INIGOES     PTCLDY    28  20  71 CALM      30.26S
LEONARDTOWN*   PTCLDY    27  21  80 CALM      30.27S

$$

MDZ003>005-201100-
NORTH CENTRAL MARYLAND

CITY           SKY/WX    TMP DP  RH WIND       PRES   REMARKS
FREDERICK*     FAIR      21  18  86 CALM      30.28R
HAGERSTOWN APT CLEAR     27  17  66 N3        30.24R
WESTMINSTER*   FAIR      27  19  74 N3        30.22S

$$

MDZ501>502-201100-
WESTERN MARYLAND

CITY           SKY/WX    TMP DP  RH WIND       PRES   REMARKS
OAKLAND*       CLOUDY    21 N/A N/A CALM      30.12S
CUMBERLAND*    PTCLDY    28  23  80 CALM      30.28F

$$

VAZ025>031-201100-
SHENANDOAH VALLEY

CITY           SKY/WX    TMP DP  RH WIND       PRES   REMARKS
WINCHESTER*    CLEAR     25  18  74 CALM      30.23F
FRONT ROYAL*   FAIR      21  19  93 CALM      30.23S
LURAY*         FAIR      21  21 100 CALM      30.24R
NEW MARKET*    FAIR      18  16  92 CALM      30.24R
STAUNTON*      PTCLDY    19  15  86 SW5       30.25R
WAYNESBORO*    FAIR      21  19  94 CALM      30.22R

$$

WVZ021-048>050-054>055-201100-
EASTERN WEST VIRGINIA PANHANDLE

CITY           SKY/WX    TMP DP  RH WIND       PRES   REMARKS
MARTINSBURG    CLEAR     21  15  78 CALM      30.25R
PETERSBURG*    MOCLDY    20  19  96 N3        30.26R

$$

VAZ036>039-050-201100-
CENTRAL FOOTHILLS

CITY           SKY/WX    TMP DP  RH WIND       PRES   REMARKS
CHARLOTTESVILL CLEAR     25  21  85 CALM      30.24R
CULPEPER*      CLEAR     19  18  93 CALM      30.26R
ORANGE*        CLEAR     23  21  93 CALM      30.26S
GORDONSVILLE*  FAIR      21  20  93 CALM      30.25R
WARRENTON*     FAIR      20  20 100 CALM      30.25S

$$

VAZ055>057-201100-
NORTH AND CENTRAL PIEDMONT

CITY           SKY/WX    TMP DP  RH WIND       PRES   REMARKS
FREDERICKSBRG* PTCLDY    25  22  89 CALM      30.26S
STAFFORD*      CLEAR     21  21 100 CALM      30.31R

$$

NCZ024-NYZ072-PAZ021-071-VAZ022-071-201100-
OTHER REGIONAL OBSERVATIONS

CITY           SKY/WX    TMP DP  RH WIND       PRES   REMARKS
NEW YORK CITY  CLOUDY    31  19  61 VRB7      30.25R
PHILADELPHIA   CLOUDY    34  22  61 N8        30.26R WCI  27
PITTSBURGH     CLOUDY    27  20  75 NE5       30.24R
ROANOKE        CLOUDY    30  23  75 SE3       30.24S
RICHMOND       CLOUDY    30  22  72 N6        30.25F
RALEIGH        CLOUDY    36  27  69 VRB3      30.24R

$$

ANZ530>537-201100-
MARINE OBSERVATIONS

STATION/POSITION TIME  TEMP    WIND        PRES
                       AIR SEA DIR/SP/G
                 (UTC) (F)     (DEG/KT/KT) (MB)
THOMAS PT LIGHT  1000   31 41  310/  7/  8 1025.8R
BALT KEY BRIDGE  1000   32     310/  7/  8 1024.4S
COVE POINT       1000   33     350/ 13/ 16 1024.1F
LEWISETTA        1000   34 42  360/  7/ 11 1024.3R
SOLOMONS ISLAND  1000      43                N/A

$$



USA.gov is the U.S. government's official web portal to all federal, state and local government web resources and services.